This is the latest recevied weather packets stored in our database for station/object OK0BPL-5. If no packets are shown the sender has not sent any weather packets the latest 1 day(s).
| Time | Temp. | Humidity | Pressure | Rain* | Wind** | Luminosity | Snow |
|---|---|---|---|---|---|---|---|
| 1788540997 | 27.22° C | 42% | 1006.5 hPa | 0 mm | 4.02 m/s, 222° | 20 W/m² | - |
| 1788540997 | 27.22° C | 42% | 1006.5 hPa | 0 mm | 4.02 m/s, 222° | 20 W/m² | - |
| 1788540099 | 27.78° C | 41% | 1005.9 hPa | 0 mm | 4.92 m/s, 222° | 30 W/m² | - |
| 1788540097 | 27.78° C | 41% | 1005.9 hPa | 0 mm | 4.92 m/s, 222° | 30 W/m² | - |
| 1788540097 | 27.78° C | 41% | 1005.9 hPa | 0 mm | 4.92 m/s, 222° | 30 W/m² | - |
| 1788539198 | 27.78° C | 40% | 1005.9 hPa | 0 mm | 4.47 m/s, 222° | 41 W/m² | - |
| 1788539197 | 27.78° C | 40% | 1005.9 hPa | 0 mm | 4.47 m/s, 222° | 41 W/m² | - |
| 1788539197 | 27.78° C | 40% | 1005.9 hPa | 0 mm | 4.47 m/s, 222° | 41 W/m² | - |
| 1788538297 | 27.78° C | 40% | 1005.8 hPa | 0 mm | 5.81 m/s, 180° | 51 W/m² | - |
| 1788538297 | 27.78° C | 40% | 1005.8 hPa | 0 mm | 5.81 m/s, 180° | 51 W/m² | - |
| 1788537398 | 28.33° C | 39% | 1005.9 hPa | 0 mm | 3.13 m/s, 222° | 63 W/m² | - |
| 1788537397 | 28.33° C | 39% | 1005.9 hPa | 0 mm | 3.13 m/s, 222° | 63 W/m² | - |
| 1788537397 | 28.33° C | 39% | 1005.9 hPa | 0 mm | 3.13 m/s, 222° | 63 W/m² | - |
| 1788536499 | 27.78° C | 39% | 1005.6 hPa | 0 mm | 5.81 m/s, 270° | 76 W/m² | - |
| 1788536497 | 27.78° C | 39% | 1005.6 hPa | 0 mm | 5.81 m/s, 270° | 76 W/m² | - |
| 1788535599 | 27.78° C | 40% | 1006.2 hPa | 0 mm | 5.81 m/s, 222° | 89 W/m² | - |
| 1788535598 | 27.78° C | 40% | 1006.2 hPa | 0 mm | 5.81 m/s, 222° | 89 W/m² | - |
| 1788534698 | 28.33° C | 39% | 1005.9 hPa | 0 mm | 4.47 m/s, 222° | 106 W/m² | - |
| 1788534697 | 28.33° C | 39% | 1005.9 hPa | 0 mm | 4.47 m/s, 222° | 106 W/m² | - |
| 1788534697 | 28.33° C | 39% | 1005.9 hPa | 0 mm | 4.47 m/s, 222° | 106 W/m² | - |
| 1788534697 | 28.33° C | - | - | - | 4.47 m/s, 222° | - | - |
| 1788533797 | 28.33° C | 40% | 1006.3 hPa | 0 mm | 4.02 m/s, 222° | 122 W/m² | - |
| 1788533797 | 28.33° C | 40% | 1006.3 hPa | 0 mm | 4.02 m/s, 222° | 122 W/m² | - |
| 1788532898 | 28.89° C | 39% | 1006.7 hPa | 0 mm | 3.13 m/s, 222° | 140 W/m² | - |
| 1788532897 | 28.89° C | 39% | 1006.7 hPa | 0 mm | 3.13 m/s, 222° | 140 W/m² | - |
* Rain latest hour (hover to see other rain measurements)
** Current wind speed in m/s (hover to see current wind gust speed)